Tracking 18843 objects as of 21-November-2017
HD Live streaming from Space Station
objects crossing your sky now

GALS 1

Track GALS 1 now!
GALS 1 is classified as:


NORAD ID: 22963
Int'l Code: 1994-002A
Perigee: 35,776.4 km
Apogee: 35,850.1 km
Inclination: 14.4 °
Period: 1,437.1 minutes
Semi major axis: 42184 km
RCS: 6.3096 m2 (large)
Launch date: January 20, 1994
Source: Commonwealth of Independent States (former USSR) (CIS)
Launch site: TYURATAM MISSILE AND SPACE COMPLEX (TTMTR)
aabbcc
Your satellite tracking list
Your tracking list is empty




NASA's NSSDC Master Catalog

Two Line Element Set (TLE):
1 22963U 94002A   17324.62132545 -.00000284  00000-0  00000+0 0  9996
2 22963  14.3806  20.3792 0008735 179.5209 180.3584  1.00202294 87313
Source of the keplerian elements: AFSPC